Location: Newark
(25.4800°N, 85.7200°E)
Time: 20:07:48
(UTC+00:00)

Explorer 7 - All Passes

Search period start: 24 August 2019 00:00
Search period end: 03 September 2019 00:00
Orbit: 485 x 680 km, 50.3° (Epoch: 24 August)

Date Brightness Start Highest point End Pass type
(mag) Time Alt. Az. Time Alt. Az. Time Alt. Az.
24 Aug - 01:25:00 10° SSW 01:29:49 60° SE 01:34:36 10° NE daylight
24 Aug - 03:07:11 10° W 03:10:40 19° NW 03:14:07 10° N daylight
24 Aug - 09:56:46 10° NNW 10:00:39 38° NE 10:04:20 10° ESE daylight
24 Aug - 11:38:24 10° W 11:40:50 16° SW 11:43:13 10° SSW daylight
24 Aug - 23:52:53 10° SE 23:54:39 12° ESE 23:56:24 10° ESE daylight
25 Aug - 01:29:55 10° SW 01:34:49 76° NW 01:39:41 10° NE daylight
25 Aug - 03:13:57 10° WNW 03:16:00 12° NNW 03:18:03 10° N daylight
25 Aug - 10:01:36 10° NW 10:05:45 76° NE 10:09:39 10° SE daylight
25 Aug - 23:55:45 10° S 23:59:30 22° SE 00:03:15 10° ENE daylight
26 Aug - 01:35:14 10° WSW 01:39:54 43° NW 01:44:32 10° NNE daylight
26 Aug - 08:27:16 10° N 08:29:57 16° NE 08:32:32 10° ENE daylight
26 Aug - 10:06:43 10° NW 10:10:45 52° SW 10:14:32 10° SSE daylight
26 Aug - 23:59:51 10° SSW 00:04:24 40° SE 00:08:58 10° ENE daylight
27 Aug - 01:40:57 10° W 01:45:04 26° NW 01:49:10 10° NNE daylight
27 Aug - 08:31:35 10° NNW 08:35:13 27° NE 08:38:41 10° E daylight
27 Aug - 10:12:13 10° WNW 10:15:39 26° SW 10:18:56 10° S daylight
28 Aug - 00:04:29 10° SW 00:09:21 73° SE 00:14:15 10° NE daylight
28 Aug - 01:47:10 10° WNW 01:50:21 17° NW 01:53:30 10° N daylight
28 Aug - 08:36:14 10° NNW 08:40:24 48° NE 08:44:18 10° ESE daylight
28 Aug - 10:18:34 10° W 10:20:29 13° WSW 10:22:21 10° SSW daylight
28 Aug - 22:31:31 10° SSE 22:34:09 15° SE 22:36:49 10° E visible
29 Aug - 00:09:32 10° SW 00:14:23 63° NW 00:19:15 10° NE daylight
29 Aug - 01:54:22 10° NW 01:55:43 11° NNW 01:57:05 10° NNW daylight
29 Aug - 07:02:32 10° N 07:04:23 12° NNE 07:06:10 10° ENE daylight
29 Aug - 08:41:09 10° NW 08:45:28 86° SW 08:49:28 10° SE daylight
29 Aug - 22:34:58 10° S 22:39:00 27° SE 22:43:06 10° ENE visible
30 Aug - 00:14:59 10° WSW 00:19:30 37° NW 00:24:02 10° NNE daylight
30 Aug - 07:06:28 10° N 07:09:43 20° NE 07:12:50 10° E daylight
30 Aug - 08:46:22 10° WNW 08:50:24 42° SW 08:54:13 10° SSE daylight
30 Aug - 22:39:17 10° SSW 22:43:56 48° SE 22:48:39 10° NE visible
31 Aug - 00:20:51 10° W 00:24:42 23° NW 00:28:35 10° NNE daylight
31 Aug - 07:10:56 10° NNW 07:14:57 33° NE 07:18:45 10° ESE daylight
31 Aug - 08:52:02 10° WNW 08:55:17 21° SW 08:58:23 10° S daylight
31 Aug - 22:44:04 10° SW 22:48:53 88° SE 22:53:50 10° NE visible
01 Sep - 00:27:15 10° WNW 00:30:02 15° NNW 00:32:47 10° N daylight
01 Sep - 07:15:42 10° NW 07:20:06 61° NE 07:24:12 10° SE daylight
01 Sep - 08:59:05 10° WSW 09:00:06 11° WSW 09:01:06 10° SW daylight
01 Sep - 21:10:31 10° SSE 21:13:40 18° SE 21:16:53 10° E visible
01 Sep - 22:49:15 10° WSW 22:53:57 52° NW 22:58:45 10° NNE visible
02 Sep - 05:41:29 10° N 05:44:09 15° NE 05:46:42 10° ENE daylight
02 Sep - 07:20:42 10° NW 07:25:07 69° SW 07:29:14 10° SE daylight
02 Sep - 21:14:19 10° S 21:18:31 32° SE 21:22:52 10° ENE visible
02 Sep - 22:54:48 10° WSW 22:59:06 31° NW 23:03:28 10° NNE visible
